OBJECT BC, 63260

Orbit data source: Space-Track

You're viewing an Uncataloged Satellite

Recently launched and/or uncataloged satellites may have evolving metadata. Metadata may include but not limited to: Owner, Maufacturer, Bus, Motor, and Mission.

OBJECT BC, 63260 is a satellite in SSO that was launched on Sat, 15 Mar 2025 UTC via an FALCON 9 launch vehicle from the Air Force Western Test Range (AFWTR). Unknown objects in Earth's orbit typically refer to objects detected orbiting the Earth but have not yet been identified or cataloged. These objects could be anything from previously untracked satellites, spent rocket stages, debris from satellite collisions, or even natural meteoroids temporarily captured by Earth's gravity.

Loading next visibility...
Identifier
63260, 2025-052BC
Orbit
SSO
Country
Flag of TBDTBD
Related business
Manufacturer
Yonsei U
Mission
Operational Amateur Technology
Bus & Motor
CUBESAT 3U, Unknown motor
Mass
5 kg wet, 5 kg dry
Launch date (UTC)
2025-03-15 (1 year ago)
Launch vehicle
FALCON 9
Launch site
Air Force Western Test Range (AFWTR)
Object type
Unknown
Shape & HBR
Box + 4 Pan + 1 Sail, 1.1 m
Radar Cross Section
0.090 m², Small (<0.1 m²)

Expand to show TLE details & history
Last TLE update: 15 hours ago

TLE from 15 hours ago
0 OBJECT BC
1 63260U 25052BC  26129.65666413  .00001340  00000-0  12909-3 0  9990
2 63260  97.6891  21.8381 0003187  94.3353 265.8231 14.94563470 62871
Epoch: 2026-05-09T15:45Z
TLE epoch observation values (Epoch: 2026-05-09T15:45:35.780Z)
Latitude
-0.00011°
Longitude
-82.03193°
Altitude
586.938 km
Speed
7.567 km/s
True Right ascension
01h 27m 21s
True Declination
0° 00' 00"
Sunlit
Object was in daylight at epoch
Visualization orbit readout
Latitude
Unknown
Longitude
Unknown
Altitude
Unknown
Speed
Unknown
Apparent Right ascension
Unknown
Apparent Declination
Unknown
Sunlit
N/A
Visualization observer readout
Local Sidereal Time
15:08:34
Azimuth
Unknown
Elevation
Unknown
Doppler factor
Unknown
Orbital elements
Apogee altitude
582.958 km
Perigee altitude
578.522 km
Semi-major axis
6,958.877 km
Eccentricity
0.00032
Inclination
97.6891°
RAAN
21.8381°
Arg. of periapsis
94.3353°
True anomaly
265.78668°
Mean anomaly
265.8231°
Eccentric anomaly
265.80489°
Mean motion
3.73882 °/min
Orbital period
96.29 mins
BSTAR
0.00012909
Loading maneuver chart data...
Computing Atmospheric mass density...
Loading historical data...
Loading historical data...
Loading historical data...
Loading historical data...
Loading historical data...
Loading historical data...
Loading historical data...

Documentation

Showing up to 5 results
|